Preview of NWS' New Version of Forecast
This preview is not operational and should not be used for support decisions.

Regional Weather Roundup (RWR)

Issued by Gray - Portland, ME (GYX)

                            
000
ASUS41 KGYX 240805
RWRGYX
WEATHER ROUNDUP FOR MAINE AND NEW HAMPSHIRE
NATIONAL WEATHER SERVICE GRAY ME
400 AM EDT FRI MAY 24 2019

MEZ002-005-006-010-012-015-018-020-021-024-026-027-029-240900-
MAINE
  
CITY           SKY/WX    TMP DP  RH WIND       PRES   REMARKS
PORTLAND       FAIR      55  53  93 W7        29.57F                  
SANFORD        FAIR      54  54 100 CALM      29.59F FOG              
BAR HARBOR     HVY RAIN  46  46 100 E6        29.60F FOG              
WISCASSET      FOG       51  51 100 CALM      29.58S VSB 3/4          
ROCKLAND       FOG       48  48 100 N5        29.57F VSB 1/2          
FRYEBURG       MOCLDY    52  52 100 CALM      29.57S                  
LEWISTONAUBURN FOG       51  51 100 CALM      29.57F VSB 1/2          
AUGUSTA        FOG       50  50 100 CALM      29.57F VSB 1/4          
WATERVILLE     CLOUDY    49  49 100 NE6       29.55F FOG              
BANGOR         LGT RAIN  49  48  97 E9        29.59F FOG              
GREENVILLE       N/A     45  44  97 E10       29.56F                  
MILLINOCKET    RAIN      48  46  93 E8        29.66F FOG              
HOULTON        LGT RAIN  48  45  89 E12G17    29.69S FOG              
PRESQUE ISLE   LGT RAIN  50  46  86 E7        29.73F                  
FRENCHVILLE    LGT RAIN  51  44  77 E8        29.75F                  
CARIBOU        LGT RAIN  50  45  83 E8        29.73F                  
$$

NHZ002-005-008-009-011-012-014-240900-
NEW HAMPSHIRE
  
CITY           SKY/WX    TMP DP  RH WIND       PRES   REMARKS
PORTSMOUTH     PTCLDY    58  57  97 SW9       29.58F                  
ROCHESTER      FAIR      54  52  93 CALM      29.59F FOG              
NASHUA         FAIR      56  56 100 CALM      29.63F                  
MANCHESTER     FAIR      59  56  89 W3        29.62S                  
CONCORD        FAIR      56  53  90 SW8       29.61F                  
LACONIA        FAIR      58  54  86 SW15G22   29.58F                  
PLYMOUTH       MOCLDY    53  52  96 CALM      29.59F FOG              
BERLIN         NOT AVBL                                               
WHITEFIELD     LGT RAIN  56  53  90 SW6       29.59F                  
JAFFREY        FAIR      56  53  90 S8        29.66F                  
KEENE          CLOUDY    52  52 100 S6        29.66S                  
LEBANON        CLOUDY    54  51  90 CALM      29.63S FOG              
MT WASHINGTON  LGT RAIN  39  39 100 W51G62      N/A  VSB 0            
$$

VTZ005-007-008-240900-
VERMONT
  
CITY           SKY/WX    TMP DP  RH WIND       PRES   REMARKS
ST JOHNSBURY     N/A     58  56  93 MISG      29.59R                  
MONTPELIER     LGT RAIN  57  52  83 NW9       29.67S                  
BURLINGTON     CLOUDY    61  32  33 W10       29.64S                  
$$

MAZ007-012-024-CTZ003-RIZ002-NYZ038-NYZ072-240900-
SOUTHERN NEW ENGLAND AND NY
  
CITY           SKY/WX    TMP DP  RH WIND       PRES   REMARKS
BOSTON         FAIR      64  58  80 SW14      29.64F                  
WORCESTER      FAIR      56  55  97 W13       29.68F                  
NANTUCKET      FOG       55  54  96 SW16      29.69F VSB 1/2          
PROVIDENCE     FAIR      60  58  92 SW8       29.69F                  
HARTFORD       FAIR      63  53  70 SW9G17    29.72F                  
ALBANY         FAIR      61  48  62 NW14G22   29.75R                  
NEW YORK CITY  FAIR      71  61  70 W15G22    29.78S                  
$$

ANZ081-ANZ082-ANZ150-NHZ014-MEZ023>029-240900-
COASTAL MARINE OBSERVATIONS
  
STATION/POSITION TIME  TEMP    WIND        PRES    WAVE
                       AIR SEA DIR/SP/G            HT/PER
                 (UTC) (F)     (DEG/KT/KT) (MB)    (FT/S)
ISLE OF SHOALS   0700   60     240/ 16/ 17 1002.0F
JEFFREYS LEDGE   0738      48                N/A     5/ 6
CASHES LEDGE BUO 0650   50 47              1002.0    5/ 7
GEORGES BANK BUO 0750   51     180/ 21/ 27 1008.3F   6/ 6
$$

.............KEY..............
   WCI - WIND CHILL
   TC  - TEMPERATURE IN CELSIUS
   VSB - VISIBILITY IN MILES
   HX  - HEAT INDEX
   FAIR- INDICATES FEW OR NO CLOUDS BELOW 12,000 FT, WITH NO 
         SIGNIFICANT WEATHER AND/OR OBSTRUCTIONS TO VISIBILITY.